Location: Gleizolles
(44.4833°N, 6.7667°E)
Time: 16:45:26
(UTC+00:00)

Tiros 1 - Pass Details

Date: 28 June 2024
Orbit: 624 x 656 km, 48.4° (Epoch: 13 July)

Event Time Altitude Azimuth Distance (km) Brightness Sun altitude
Rises 02:46:31 0° 292° (WNW) 2,912 10.3 -9.5°
Reaches altitude 10° 02:48:51 10° 289° (WNW) 2,007 9.4 -9.2°
Maximum altitude 02:53:23 60° 210° (SSW) 727 7.1 -8.7°
Drops below altitude 10° 02:57:58 10° 131° (SE) 2,017 9.8 -8.1°
Sets 03:00:19 0° 128° (SE) 2,929 10.6 -7.8°
